Temp
52 52 53 53 53 53 49 43 34 44 48 35 34 33 41 47 49 53 51 51 49 46 47 45 45 44 50 54 51 47 48 41 34 40 48 49 44 39 35 22 25 23 22 26
51 51 52 53 52 52 42 37 35 43 43 32 31 38 42 46 47 50 50 48 52 52 45 42 48 47 50 51 48 44 46 36 28 34 39 43 39 42 41 33 29 27 19 26
51 51 51 52 52 52 43 35 29 33 35 36 36 34 37 39 49 47 50 46 47 45 44 49 42 44 46 46 46 49 48 39 36 33 35 37 34 39 39 36 24 28 27 32
50 51 51 51 52 52 43 37 32 33 27 31 34 37 37 37 39 47 50 46 45 39 36 42 38 43 43 45 47 43 42 34 37 38 41 41 39 39 39 35 35 29 34 36
50 50 50 50 51 51 41 32 33 34 30 37 34 36 37 37 40 44 41 40 45 45 39 38 35 41 39 39 41 38 39 27 34 31 38 40 36 39 39 40 39 38 38 35
49 50 50 50 51 50 40 39 41 37 33 31 32 35 37 38 43 47 49 43 40 41 45 48 48 46 44 43 38 35 35 33 30 28 36 37 30 35 39 40 40 38 30 36
49 49 49 49 49 49 43 41 39 35 32 34 32 38 38 38 41 40 44 43 44 46 51 50 49 47 44 43 39 40 33 33 30 27 30 21 35 44 45 40 41 41 39 39
49 49 48 49 49 49 43 42 40 35 32 35 37 37 39 41 43 43 43 43 48 49 43 34 33 33 37 38 40 40 40 33 27 23 24 31 36 40 39 38 33 39 38 38
48 48 48 49 48 48 44 44 43 39 34 34 43 37 40 35 37 38 41 48 47 46 35 32 27 24 30 29 33 42 40 36 28 25 21 16 30 39 45 44 23 37 39 36
48 49 48 48 49 47 44 43 45 41 34 39 40 36 39 42 42 34 38 41 41 45 32 29 26 26 36 28 24 23 27 25 21 23 14 26 38 43 45 29 26 36 36 34
48 48 49 49 49 47 45 40 43 41 36 39 43 43 41 39 41 35 38 37 37 35 31 29 29 27 30 29 32 26 23 21 19 21 15 18 43 42 33 32 36 35 34 33
47 48 48 49 49 49 49 40 43 45 39 37 43 44 45 47 48 40 43 39 37 37 32 30 31 28 28 28 23 32 23 25 23 26 25 35 38 38 39 38 35 34 34 36
47 48 48 49 49 49 48 41 43 43 38 37 37 39 46 51 53 52 39 39 45 41 43 35 33 32 30 22 25 30 32 36 26 29 33 35 36 38 39 39 36 37 38 37
47 47 48 48 49 49 49 40 44 42 39 32 35 46 45 52 51 52 51 48 47 45 41 34 31 31 36 29 32 30 32 35 30 28 34 37 37 37 37 37 38 38 39 37
47 47 48 48 49 49 46 42 43 46 40 33 34 42 46 51 50 50 51 47 41 37 34 30 30 33 34 32 33 26 36 32 26 25 34 33 34 35 38 36 37 39 34 32
47 47 48 48 49 49 43 37 45 47 45 34 30 39 41 48 50 48 46 45 40 36 35 32 34 39 33 24 25 37 41 41 41 36 40 37 37 39 40 36 35 35 33 31
48 47 48 49 49 45 38 37 41 48 45 34 31 32 40 47 46 42 41 40 37 37 33 31 32 33 32 26 27 38 40 41 41 41 40 35 39 36 39 37 36 35 32 31
48 48 48 49 49 48 41 42 49 48 42 39 29 30 34 43 36 36 39 35 36 35 32 33 31 33 30 26 37 40 41 41 40 40 40 39 38 37 37 37 34 30 27 27
48 48 49 46 43 39 41 48 48 46 41 31 25 26 24 41 36 37 36 35 28 34 28 32 32 28 27 36 38 38 40 38 37 39 39 38 35 35 35 34 32 28 25 25
48 46 35 32 40 48 47 40 35 35 37 35 30 33 29 37 32 29 31 28 26 23 31 34 28 28 37 42 43 41 40 40 40 34 30 32 32 30 30 28 28 27 25 24
41 33 34 42 48 39 35 31 30 30 30 33 33 37 34 39 31 30 32 22 26 22 29 28 26 23 33 37 37 38 39 39 39 39 37 37 32 29 27 26 25 25 24 23
40 41 44 42 37 32 27 24 27 29 28 31 33 35 35 35 37 30 28 27 24 25 31 24 25 27 34 35 33 32 33 32 31 34 31 31 31 29 26 25 24 24 23 16
46 39 34 32 28 20 18 16 22 24 30 33 35 32 34 34 32 27 24 21 22 31 21 25 27 31 34 32 32 30 31 30 28 27 28 27 26 27 26 24 23 21 16 13
32 25 17 23 16 26 27 29 31 32 35 37 37 29 30 28 27 26 21 27 28 16 14 24 25 31 32 32 32 30 28 27 25 25 26 25 24 19 16 16 14 14 12 5
26 28 16 18 26 29 30 31 34 37 40 37 32 30 29 24 22 26 25 19 15 22 20 22 28 32 31 30 30 28 26 22 21 19 16 14 15 15 12 11 12 13 9 5
31 29 27 31 32 30 31 34 34 37 31 33 31 27 19 19 24 20 18 21 18 20 23 26 31 31 30 29 29 27 23 21 17 15 14 13 12 13 11 8 9 7 8 3
29 28 31 31 31 31 32 33 33 32 31 23 26 18 23 26 20 22 24 18 28 23 24 31 32 30 27 25 23 20 20 18 16 13 14 11 10 11 12 10 5 7 6 3
MSLP
1011.69 1012.14 1012.40 1012.94 1013.49 1014.02 1014.58 1015.29 1015.76 1015.73 1015.67 1016.30 1015.70 1014.50 1013.49 1012.40 1011.66 1010.92 1010.63 1010.21 1010.14 1010.29 1010.48 1010.22 1010.60 1010.57 1010.30 1010.26 1010.89 1012.09 1012.92 1014.16 1015.04 1014.95 1014.89 1015.12 1016.12 1017.21 1018.26 1020.12 1021.07 1021.28 1021.27 1020.43
1011.26 1011.55 1011.91 1012.35 1012.88 1013.49 1014.35 1015.06 1015.59 1015.66 1015.78 1015.18 1015.25 1014.40 1013.83 1012.55 1011.67 1010.92 1010.48 1010.23 1010.36 1010.39 1010.88 1010.95 1009.89 1010.28 1010.46 1010.65 1011.15 1011.64 1012.78 1014.06 1015.21 1015.47 1015.95 1015.67 1016.23 1016.82 1017.50 1018.79 1020.11 1020.66 1021.18 1020.38
1010.66 1011.04 1011.43 1011.76 1012.22 1012.94 1013.94 1015.31 1015.66 1015.90 1015.53 1015.13 1014.62 1014.05 1013.17 1012.45 1011.80 1011.48 1010.82 1011.05 1011.28 1011.71 1010.41 1009.68 1010.46 1011.10 1011.47 1011.83 1011.81 1011.80 1012.24 1014.05 1014.46 1014.49 1015.04 1015.42 1016.04 1016.46 1016.99 1017.91 1019.58 1019.65 1019.36 1019.53
1010.01 1010.42 1010.80 1011.21 1011.62 1012.38 1013.50 1014.20 1014.11 1013.66 1014.51 1014.63 1014.14 1013.85 1013.15 1012.37 1011.83 1010.98 1010.79 1010.85 1011.17 1011.41 1011.52 1011.54 1011.73 1011.95 1012.43 1012.94 1013.05 1013.00 1013.38 1014.40 1015.01 1015.15 1015.08 1015.30 1015.51 1015.93 1016.40 1016.97 1017.44 1018.17 1018.18 1018.33
1009.35 1009.96 1010.28 1010.56 1011.06 1011.71 1012.79 1013.41 1013.59 1013.56 1013.16 1013.31 1013.76 1013.36 1012.41 1011.87 1011.15 1011.23 1010.63 1010.38 1010.21 1010.94 1011.13 1011.73 1012.05 1012.69 1012.93 1013.20 1013.94 1014.14 1014.39 1015.23 1015.50 1015.82 1015.66 1015.54 1015.46 1015.46 1015.71 1015.92 1016.39 1016.89 1017.26 1017.86
1008.85 1009.23 1009.66 1010.14 1010.53 1011.34 1011.22 1012.51 1012.67 1012.64 1012.21 1012.20 1012.95 1012.10 1011.05 1010.82 1010.85 1010.50 1010.12 1010.78 1010.42 1010.46 1010.21 1010.05 1009.89 1010.92 1011.56 1012.27 1013.28 1014.52 1015.07 1015.74 1016.64 1016.69 1016.35 1016.15 1015.49 1014.58 1014.91 1015.23 1015.51 1016.04 1016.67 1017.45
1008.20 1008.66 1009.10 1009.63 1010.09 1010.54 1011.45 1011.62 1011.92 1012.31 1011.32 1011.26 1011.01 1010.68 1010.56 1010.57 1010.23 1010.13 1010.47 1010.98 1010.29 1010.94 1010.26 1010.27 1010.62 1011.81 1012.83 1013.38 1013.70 1013.83 1015.34 1016.45 1017.29 1017.66 1017.34 1016.45 1014.71 1013.92 1014.02 1014.91 1015.70 1015.73 1016.56 1017.67
1007.60 1008.01 1008.50 1009.06 1009.57 1010.14 1011.02 1010.97 1011.15 1011.54 1010.60 1010.22 1010.37 1010.21 1009.74 1009.99 1010.05 1010.00 1010.13 1011.20 1010.92 1010.79 1010.48 1011.90 1013.09 1013.97 1014.19 1014.49 1014.79 1014.89 1015.25 1016.73 1018.09 1018.20 1017.75 1016.28 1015.17 1014.70 1014.47 1014.88 1016.86 1017.10 1017.53 1018.76
1006.94 1007.44 1007.97 1008.54 1009.17 1009.72 1010.80 1010.20 1010.47 1011.02 1010.99 1009.66 1009.42 1009.60 1009.40 1009.52 1009.62 1010.37 1010.28 1010.34 1010.56 1010.64 1012.15 1013.26 1014.26 1014.77 1014.75 1015.32 1015.51 1015.64 1016.05 1016.85 1018.21 1018.85 1018.43 1017.20 1015.69 1014.98 1014.66 1014.95 1017.40 1018.20 1018.47 1019.57
1006.33 1006.84 1007.43 1008.03 1008.58 1009.32 1009.73 1009.57 1009.81 1010.42 1010.71 1010.03 1009.47 1009.13 1008.41 1008.33 1008.60 1009.53 1010.19 1010.29 1010.87 1010.86 1012.77 1013.92 1014.74 1014.85 1014.34 1015.27 1015.78 1016.57 1017.39 1018.26 1018.82 1019.12 1018.79 1017.29 1015.89 1015.33 1015.09 1016.51 1018.54 1019.00 1019.55 1020.33
1005.70 1006.23 1006.74 1007.36 1007.95 1008.69 1008.98 1009.38 1009.52 1010.08 1010.42 1009.88 1009.07 1008.78 1008.36 1007.76 1007.77 1008.39 1009.13 1010.00 1010.62 1011.62 1012.90 1014.04 1014.17 1014.24 1014.40 1014.99 1015.48 1016.23 1017.20 1018.39 1019.03 1019.24 1018.95 1017.79 1016.02 1015.99 1016.46 1017.75 1018.65 1019.37 1020.18 1020.72
1004.86 1005.45 1006.05 1006.58 1007.25 1007.87 1008.35 1009.19 1009.34 1009.86 1010.60 1010.05 1009.02 1008.58 1008.03 1007.32 1006.33 1007.31 1007.68 1007.99 1009.07 1010.31 1011.59 1012.82 1013.17 1013.57 1014.13 1014.56 1015.95 1016.19 1016.87 1016.86 1017.76 1018.14 1017.85 1017.10 1016.48 1016.56 1017.07 1017.69 1018.76 1019.97 1020.32 1020.94
1003.92 1004.66 1005.44 1006.18 1006.86 1007.39 1008.05 1008.71 1009.25 1009.80 1010.14 1009.81 1009.81 1008.25 1007.37 1006.10 1005.53 1005.76 1006.67 1008.04 1008.07 1008.85 1009.46 1011.11 1012.24 1012.86 1013.64 1014.84 1015.40 1015.78 1016.11 1016.33 1016.95 1017.64 1017.90 1017.51 1017.24 1017.54 1017.87 1018.42 1019.35 1019.99 1020.59 1021.41
1002.91 1004.04 1004.85 1005.66 1006.43 1007.10 1007.80 1008.38 1008.56 1009.05 1009.71 1009.83 1009.00 1007.76 1006.68 1005.56 1005.54 1005.81 1005.76 1006.75 1007.54 1008.55 1009.54 1011.00 1012.27 1012.88 1013.08 1014.21 1014.42 1015.01 1015.25 1015.79 1016.58 1017.46 1017.77 1018.09 1018.35 1018.31 1018.59 1019.22 1019.82 1020.60 1021.37 1022.06
1002.04 1003.28 1004.35 1005.22 1006.20 1006.96 1007.83 1008.37 1008.66 1008.62 1009.65 1009.35 1008.82 1008.09 1006.98 1006.45 1006.26 1006.08 1006.58 1007.45 1008.51 1009.63 1010.89 1011.75 1012.76 1012.73 1013.10 1013.94 1014.23 1014.50 1014.31 1014.85 1015.65 1016.22 1016.65 1017.17 1018.28 1018.81 1018.96 1019.47 1020.26 1021.03 1021.93 1023.09
1001.10 1002.55 1003.91 1005.06 1006.01 1006.87 1007.90 1008.46 1008.48 1008.54 1009.09 1009.47 1009.23 1009.04 1007.93 1006.58 1006.13 1006.69 1007.66 1008.04 1009.09 1010.09 1011.39 1012.61 1012.71 1012.74 1013.01 1014.10 1014.35 1013.79 1013.42 1013.68 1014.03 1015.06 1016.06 1016.66 1017.93 1018.84 1019.25 1020.07 1020.89 1021.74 1022.63 1023.66
1000.79 1002.49 1003.76 1004.76 1005.69 1006.58 1007.11 1007.41 1007.46 1007.95 1008.99 1009.38 1009.41 1009.22 1008.68 1007.87 1007.77 1008.20 1008.78 1009.18 1010.13 1010.82 1012.15 1012.95 1013.11 1012.97 1012.97 1013.95 1014.23 1014.00 1013.64 1013.93 1014.52 1015.30 1016.34 1017.94 1018.40 1019.03 1019.71 1020.49 1021.51 1022.39 1023.46 1024.38
1000.87 1002.48 1003.82 1005.03 1006.13 1006.80 1007.02 1007.23 1007.37 1007.64 1008.80 1009.02 1009.58 1009.88 1009.33 1008.42 1008.82 1009.38 1009.72 1010.59 1011.04 1011.89 1012.76 1013.14 1013.41 1013.36 1013.53 1014.12 1013.79 1014.02 1014.23 1014.72 1015.47 1016.04 1016.23 1017.19 1018.37 1019.41 1020.27 1020.99 1021.92 1023.06 1024.24 1025.19
1001.33 1002.85 1004.27 1005.71 1006.45 1006.73 1006.94 1007.28 1007.57 1007.69 1008.84 1009.11 1009.44 1009.75 1009.61 1008.83 1009.70 1010.12 1010.78 1011.43 1012.85 1013.05 1013.20 1013.38 1013.54 1014.11 1014.10 1013.53 1013.90 1014.28 1014.63 1014.96 1016.05 1016.71 1017.36 1018.18 1019.04 1020.04 1020.80 1021.55 1022.61 1023.68 1025.01 1025.89
1001.59 1003.44 1005.00 1005.61 1005.88 1006.18 1007.09 1008.16 1008.40 1008.25 1008.06 1008.60 1008.89 1008.97 1009.24 1009.31 1010.04 1011.31 1012.08 1012.66 1013.62 1013.82 1013.72 1013.53 1014.01 1014.37 1013.83 1013.51 1013.71 1014.23 1014.87 1015.47 1016.22 1017.34 1018.54 1019.12 1020.06 1020.80 1021.68 1022.48 1023.36 1024.25 1025.43 1026.50
1001.74 1003.40 1004.25 1004.94 1005.74 1006.83 1008.19 1008.75 1008.89 1008.59 1008.51 1008.24 1008.47 1008.55 1008.78 1009.62 1010.61 1011.76 1012.54 1013.45 1014.01 1014.31 1014.07 1014.01 1014.74 1014.83 1014.59 1014.38 1014.64 1015.04 1015.57 1016.10 1016.70 1017.05 1018.10 1018.95 1019.93 1021.23 1022.33 1023.51 1024.40 1025.26 1026.15 1027.05
1001.16 1001.95 1003.99 1005.59 1006.94 1008.17 1008.60 1008.51 1008.11 1007.71 1008.00 1008.15 1008.40 1008.93 1009.40 1010.37 1010.91 1012.41 1013.38 1013.90 1014.32 1014.22 1013.86 1014.52 1014.99 1014.62 1014.85 1015.04 1015.70 1016.30 1016.68 1017.15 1017.90 1018.38 1019.36 1020.25 1021.06 1021.98 1023.04 1024.18 1025.21 1026.11 1026.93 1028.03
1001.03 1002.77 1005.13 1006.38 1007.04 1007.39 1007.52 1007.98 1007.65 1007.54 1007.45 1007.85 1008.44 1009.57 1010.42 1011.22 1011.90 1013.31 1013.68 1014.18 1014.29 1013.88 1014.65 1014.65 1014.31 1014.61 1015.29 1015.77 1016.52 1017.49 1018.02 1018.44 1019.25 1020.28 1020.79 1021.49 1022.38 1023.28 1023.91 1025.07 1026.06 1026.92 1027.95 1028.81
1002.47 1004.17 1005.94 1006.27 1006.65 1006.64 1006.62 1006.47 1006.30 1006.53 1006.77 1007.77 1008.82 1010.20 1011.05 1012.02 1012.74 1013.51 1014.30 1014.32 1014.14 1014.87 1015.15 1014.48 1014.35 1014.66 1015.56 1016.33 1017.15 1017.90 1019.18 1019.82 1020.67 1021.47 1022.15 1022.87 1023.67 1024.62 1025.41 1026.10 1026.88 1027.66 1028.68 1029.41
1004.16 1005.10 1006.63 1006.93 1006.72 1006.51 1006.34 1006.17 1006.03 1006.38 1006.93 1008.05 1009.47 1010.72 1011.45 1012.77 1013.41 1013.70 1014.25 1014.78 1014.64 1014.37 1014.05 1013.70 1013.95 1014.84 1015.69 1016.74 1017.71 1018.66 1019.79 1020.85 1021.71 1022.44 1023.27 1024.13 1024.86 1025.66 1026.54 1027.07 1027.50 1028.16 1028.97 1029.62
1005.33 1006.50 1007.02 1006.78 1006.56 1006.59 1006.44 1006.47 1006.80 1007.12 1007.86 1008.84 1009.85 1011.36 1012.36 1013.03 1013.21 1013.79 1013.75 1014.02 1013.78 1013.54 1013.31 1013.44 1014.21 1015.33 1016.29 1017.28 1018.27 1019.22 1020.32 1021.28 1022.30 1023.13 1024.01 1024.88 1025.65 1026.31 1027.05 1027.60 1028.07 1028.61 1029.18 1029.79
1006.78 1007.70 1007.51 1007.22 1007.41 1007.44 1007.55 1007.59 1007.87 1007.89 1008.56 1009.90 1010.54 1011.28 1012.08 1012.42 1012.86 1013.18 1012.91 1013.09 1012.71 1013.03 1013.53 1013.90 1014.42 1015.37 1016.59 1017.64 1018.79 1019.87 1020.83 1021.89 1022.84 1023.75 1024.64 1025.40 1026.08 1026.68 1027.37 1028.07 1028.48 1028.78 1029.28 1029.68
Wind_Speed
14 15 15 15 14 13 9 3 4 2 8 5 2 5 7 9 10 11 8 2 7 6 6 9 13 12 10 9 8 15 6 5 5 7 6 8 6 8 7 7 6 3 4 6
15 17 15 17 18 16 5 3 2 1 3 8 5 7 15 10 10 12 11 4 8 4 16 13 11 8 2 8 7 12 8 3 3 4 6 2 6 6 5 5 3 7 6 4
17 16 16 18 20 20 5 3 4 0 1 1 7 7 15 8 9 15 7 5 10 8 7 6 4 3 5 4 2 8 9 4 8 12 4 5 5 5 6 7 4 5 6 5
17 18 17 18 20 20 6 4 5 4 7 8 11 10 5 20 10 5 11 12 12 11 1 4 2 5 3 7 2 4 5 7 4 3 3 1 4 5 9 9 7 7 7 11
17 18 19 18 16 19 5 4 3 3 4 12 16 13 16 15 22 21 8 8 10 10 13 12 8 8 6 7 1 2 2 3 3 1 3 4 7 8 9 11 6 10 6 3
18 18 18 18 18 13 3 2 3 1 6 8 11 16 21 22 16 11 11 5 6 11 4 5 7 6 7 10 10 5 5 6 4 3 2 2 11 9 10 6 5 7 6 7
19 19 17 19 18 18 2 3 2 4 5 10 18 20 18 18 19 16 4 7 9 5 10 7 12 14 10 7 5 6 7 6 3 3 2 6 5 6 8 6 3 4 10 12
20 19 17 18 18 18 6 3 4 3 4 10 9 15 21 14 9 18 12 12 6 7 6 6 7 5 4 3 1 5 6 5 3 5 4 6 7 2 5 7 3 3 13 11
19 17 17 18 18 19 10 6 4 3 4 6 14 11 15 13 12 4 4 10 7 7 4 5 5 6 6 6 3 3 6 5 5 3 3 6 4 3 5 5 0 4 10 7
19 18 18 18 19 18 13 3 5 3 3 4 7 5 9 8 9 6 4 7 5 4 3 3 3 4 6 7 8 6 4 3 6 2 3 6 5 5 0 5 6 5 7 6
23 22 21 19 19 20 14 3 5 5 1 7 3 2 6 5 9 9 7 5 3 4 4 4 5 4 5 4 6 7 7 7 4 3 2 7 6 3 6 6 5 8 7 6
26 24 22 20 18 20 16 2 3 4 3 5 2 7 17 13 8 7 9 6 7 6 5 3 3 3 3 6 3 1 1 8 7 8 7 3 2 4 7 5 9 5 7 6
26 25 23 21 19 18 15 3 4 4 2 3 3 4 8 5 3 3 7 1 5 4 5 5 3 4 5 4 3 4 2 4 4 5 2 4 8 7 7 8 9 7 8 10
28 26 24 22 20 19 18 3 3 4 2 2 3 10 5 4 4 2 5 6 6 6 4 4 3 4 2 4 5 5 5 7 6 2 6 8 4 6 10 8 10 11 9 8
29 29 27 23 21 19 9 2 3 4 1 1 2 7 8 4 7 10 9 7 6 3 4 4 2 2 4 2 3 1 5 7 6 6 12 5 6 6 7 9 8 11 15 12
32 29 27 24 23 20 6 3 2 6 4 2 1 3 6 5 7 9 8 6 4 4 4 2 2 0 4 4 2 3 4 5 7 5 7 9 14 10 6 10 12 13 14 12
30 29 28 25 25 10 5 5 3 11 4 2 2 3 5 1 4 4 4 4 3 5 3 3 3 2 4 3 3 2 10 12 14 17 18 11 10 7 13 15 13 15 13 11
32 30 27 24 25 10 2 1 13 7 3 2 3 2 2 2 2 4 2 4 4 5 3 2 3 3 3 3 8 10 12 14 12 8 7 9 13 13 12 13 14 13 11 11
33 30 27 16 3 3 1 8 5 3 3 3 3 5 3 2 2 3 4 4 4 3 3 1 4 2 1 6 15 15 15 8 12 12 14 14 14 11 10 11 11 14 10 9
34 21 5 4 4 20 10 5 3 4 2 2 3 2 3 4 2 3 3 3 2 2 3 3 4 1 3 10 13 12 13 16 17 15 7 10 10 10 8 10 9 11 10 9
6 4 3 8 11 5 2 3 3 3 1 1 2 5 6 3 5 2 2 3 1 3 4 5 1 1 0 5 8 7 10 11 9 11 12 13 15 13 13 11 11 10 9 9
8 11 8 4 4 2 4 4 0 3 6 1 8 5 4 3 4 4 2 3 3 3 3 5 3 3 6 10 10 9 10 13 11 11 12 11 12 12 12 11 10 9 9 8
9 6 5 3 3 4 6 5 2 3 3 5 8 7 4 3 4 4 4 3 4 3 3 4 4 8 9 11 11 11 10 14 15 13 13 14 13 11 12 11 9 10 8 5
6 5 5 2 2 2 3 4 5 3 10 13 11 3 4 2 4 3 5 2 3 3 2 6 4 12 12 10 10 13 10 11 12 12 12 12 11 9 7 8 8 9 7 4
5 5 4 1 3 2 2 2 4 8 12 9 5 4 4 2 4 1 4 3 3 6 6 4 7 13 14 12 11 12 12 10 10 8 8 9 9 9 7 5 6 7 6 6
4 6 2 2 3 5 4 9 12 5 4 4 4 4 5 2 5 3 6 7 6 5 4 5 11 12 11 11 11 10 10 10 9 8 8 8 8 9 8 5 6 6 6 5
5 4 3 3 4 4 4 3 3 1 5 3 4 5 6 3 2 2 3 6 2 3 3 6 12 13 13 11 11 11 11 10 9 7 8 6 5 7 6 6 4 5 5 4
Wind_Direction
226 227 222 216 198 194 152 166 200 176 160 175 228 214 216 193 265 248 262 271 212 230 259 201 196 194 197 163 153 171 178 141 179 195 206 178 174 181 159 136 238 222 148 258
227 229 222 219 201 187 129 221 154 110 264 208 201 226 238 244 239 241 213 255 222 236 207 226 178 192 309 164 143 157 174 181 93 18 9 319 198 196 160 119 90 187 155 242
229 223 225 215 210 192 121 151 161 185 7 99 218 201 224 228 229 257 244 209 280 280 318 17 110 108 32 6 57 109 98 143 189 213 170 154 181 188 168 147 150 188 214 174
227 226 222 212 206 194 133 195 209 200 168 196 193 180 211 218 236 232 228 220 218 226 260 226 89 55 56 6 5 65 108 156 150 164 156 347 212 211 206 198 193 179 197 215
230 228 222 212 199 183 162 158 178 252 186 199 194 202 216 218 221 227 236 233 210 196 183 181 187 165 178 183 201 89 12 170 100 233 199 228 253 229 225 230 213 224 204 207
228 227 222 218 205 181 168 166 209 159 188 157 183 211 216 211 219 228 213 285 228 240 222 194 174 157 132 159 148 140 117 123 101 260 187 352 279 202 216 210 187 171 180 185
229 225 220 214 209 195 178 183 142 232 181 171 198 204 207 213 203 198 172 325 185 286 135 91 55 62 67 82 65 117 123 112 108 174 131 237 273 222 204 172 32 140 106 132
223 219 214 209 207 198 200 191 164 159 247 203 204 215 208 210 215 217 191 180 262 171 54 69 53 3 48 26 147 127 119 118 133 153 201 298 311 264 146 153 16 14 120 114
217 217 214 208 209 201 226 209 149 169 279 204 213 203 205 201 208 146 206 151 185 61 42 67 141 172 171 192 151 203 94 88 124 130 182 227 251 256 129 90 2 360 123 127
227 218 216 215 206 206 232 204 169 128 240 262 176 237 222 182 163 149 178 162 157 109 113 115 161 202 168 171 162 168 129 58 162 154 207 286 234 187 154 132 217 129 120 123
226 223 224 218 207 217 216 175 185 170 141 278 207 267 276 167 173 167 175 88 333 86 125 151 204 149 195 124 161 169 153 151 166 103 119 258 190 89 159 170 98 125 118 130
219 217 219 215 209 212 191 155 174 129 182 264 12 244 259 262 178 145 169 150 157 163 134 177 148 125 122 130 189 108 188 173 173 164 209 257 353 134 110 118 125 133 122 125
208 208 210 208 207 204 190 139 163 121 211 289 264 266 283 289 183 212 127 228 151 129 166 150 127 104 118 130 216 103 221 135 126 100 265 118 99 74 92 106 118 118 97 102
201 201 201 201 200 195 185 165 171 111 105 232 293 294 266 277 346 183 112 116 63 94 76 83 108 112 134 180 159 137 192 134 142 93 108 97 71 110 122 112 104 112 107 108
194 192 196 193 189 185 167 125 189 119 80 264 287 312 311 323 231 104 104 103 92 83 60 65 103 106 88 43 83 170 184 162 157 209 176 144 148 159 133 117 109 119 108 88
183 182 182 177 177 163 139 177 260 166 146 284 8 313 310 347 39 79 101 90 79 85 112 122 56 177 105 104 143 308 169 147 142 154 141 129 134 141 124 106 110 111 110 112
172 171 171 172 170 154 159 174 186 130 112 161 59 13 321 24 50 43 61 45 67 97 97 77 138 33 82 93 123 148 98 103 103 112 111 107 147 144 124 118 116 106 102 99
158 161 161 162 154 111 293 353 154 124 121 111 104 21 9 7 20 62 24 63 36 18 123 52 93 9 62 72 126 125 113 110 114 128 85 123 117 117 121 125 123 111 107 105
150 148 149 140 160 163 126 103 90 25 127 157 112 140 188 52 65 87 36 68 54 293 85 91 81 336 177 163 143 139 142 140 134 111 113 118 121 129 130 122 116 114 115 111
142 135 98 144 161 119 75 28 44 9 319 128 126 166 116 102 83 37 84 27 121 86 248 92 78 271 307 146 152 145 133 133 129 118 112 120 121 121 107 108 109 117 122 117
127 126 116 106 91 66 84 102 173 178 134 132 153 135 120 9 90 117 49 174 147 101 240 113 121 238 167 106 95 111 126 135 143 140 143 143 138 135 123 112 111 114 119 122
139 107 93 76 74 147 164 206 41 169 169 103 138 123 122 67 91 88 324 116 50 174 140 91 183 213 143 118 107 98 102 102 85 108 115 117 118 121 118 119 118 117 115 114
107 69 78 165 224 66 128 177 277 111 140 143 136 116 100 58 61 67 83 90 197 99 65 209 201 149 138 125 117 100 98 99 97 92 94 100 100 108 121 120 117 123 114 121
73 101 66 105 346 187 173 152 153 160 128 140 136 94 123 133 64 135 94 229 82 60 140 221 173 154 139 133 129 121 118 111 111 111 108 106 108 102 93 113 127 126 128 140
68 56 74 52 245 237 227 227 105 119 133 129 97 60 81 51 91 136 92 67 214 202 216 203 156 147 142 139 134 129 128 127 120 116 111 114 116 119 116 126 125 122 128 131
63 49 40 314 93 70 81 113 116 109 103 80 61 107 74 229 142 112 204 156 214 232 203 149 135 139 138 136 135 130 130 128 125 121 125 126 128 136 141 123 124 141 144 153
39 18 351 16 49 63 52 50 95 317 76 116 119 89 191 106 95 177 186 197 204 163 103 134 145 144 141 130 126 129 130 128 130 126 133 133 125 121 124 139 195 161 175 172